Regional Weather Roundup
Issued by NWS

Home | Current Version | Previous Version | Text Only | Print | Product List | Glossary On
Versions: 1 2 3 4 5 6 7 8 9 10 11 12 13 14 15 16 17 18 19 20 21 22 23 24 25 26 27
000
ASCA42 TJSJ 210610
RWRPR
PUERTO RICO/U.S. VIRGIN ISLANDS HOURLY WEATHER ROUNDUP
NATIONAL WEATHER SERVICE SAN JUAN PR
200 AM AST FRI JUL 21 2017

PRZ001>002-007>008-010-210700-
PUERTO RICO

CITY           SKY/WX    TMP DP  RH WIND       PRES   REMARKS
SAN JUAN LMM   MOCLDY    82  73  74 E14       30.02F
PONCE          PTCLDY    81  72  74 E7        30.03F
CEIBA          CLOUDY    82  75  78 E13       30.03F
$$

VIZ001>002-210700-
U.S. VIRGIN ISLANDS

CITY           SKY/WX    TMP DP  RH WIND       PRES   REMARKS
CHARLOTTE AMA  CLEAR     81  75  83 E8          N/A
CHRISTIANSTED  PTCLDY    77  72  83 E7        30.01F
$$

HOURLY WEATHER ROUNDUP FOR THE NEWS MEDIA

CITY           SKY/WX    TMP DP  RH WIND       PRES   REMARKS
NEW YORK       CLOUDY    80  71  74 W10       29.89R
NEWARK         CLOUDY    76  69  79 W7        29.89S
CHICAGO        CLOUDY    75  69  81 CALM      29.96F
HARTFORD       CLEAR     70  68  93 SW5       29.81F FOG
BOSTON         CLEAR     78  65  63 W3        29.81F
DALLAS         CLEAR     88  69  53 S9        30.01S HX  92
PHILADELPHIA   MOCLDY    83  68  60 SW6       29.90S
LOS ANGELES    CLEAR     68  63  84 W5        29.95F
WASHINGTON DC  MOCLDY    76  68  76 CALM      29.95S



USA.gov is the U.S. government's official web portal to all federal, state and local government web resources and services.